TimeCST,TemperatureF,Dew PointF,Humidity,Sea Level PressureIn,VisibilityMPH,Wind Direction,Wind SpeedMPH,Gust SpeedMPH,PrecipitationIn,Events,Conditions,WindDirDegrees,DateUTC
12:03 AM,37.4,37.4,100,29.91,10.0,North,18.4,23.0,N/A,,Overcast,360,2013-12-14 06:03:00
12:12 AM,37.4,37.4,100,29.91,10.0,North,17.3,23.0,N/A,,Overcast,10,2013-12-14 06:12:00
12:22 AM,37.4,37.4,100,29.91,9.0,North,17.3,-,N/A,,Overcast,10,2013-12-14 06:22:00
12:27 AM,37.4,37.4,100,29.91,8.0,North,18.4,23.0,N/A,,Overcast,10,2013-12-14 06:27:00
12:47 AM,37.4,37.4,100,29.91,9.0,North,21.9,26.5,N/A,,Overcast,360,2013-12-14 06:47:00
12:52 AM,35.6,35.6,100,29.91,9.0,North,24.2,27.6,N/A,,Overcast,360,2013-12-14 06:52:00
12:58 AM,35.4,35.4,100,29.95,10.0,North,17.3,27.6,N/A,,Overcast,360,2013-12-14 06:58:00
1:08 AM,35.6,35.6,100,29.92,9.0,North,18.4,23.0,N/A,,Overcast,10,2013-12-14 07:08:00
1:58 AM,32.5,32.4,99,29.99,9.0,North,20.7,26.5,N/A,,Overcast,360,2013-12-14 07:58:00
2:58 AM,30.6,30.2,99,30.02,8.0,North,18.4,-,N/A,,Overcast,350,2013-12-14 08:58:00
3:48 AM,30.2,28.4,93,30.01,10.0,North,19.6,25.3,N/A,,Overcast,350,2013-12-14 09:48:00
3:58 AM,29.5,28.8,97,30.04,10.0,North,23.0,32.2,N/A,,Overcast,350,2013-12-14 09:58:00
4:48 AM,26.6,26.6,100,30.03,9.0,North,25.3,34.5,N/A,,Overcast,350,2013-12-14 10:48:00
4:58 AM,26.4,26.1,99,30.07,9.0,North,24.2,31.1,N/A,,Overcast,350,2013-12-14 10:58:00
5:18 AM,26.6,24.8,93,30.05,10.0,North,18.4,27.6,N/A,,Overcast,350,2013-12-14 11:18:00
5:58 AM,25.5,25.3,99,30.13,10.0,North,18.4,-,N/A,,Overcast,350,2013-12-14 11:58:00
6:33 AM,24.8,24.8,100,30.10,9.0,North,23.0,28.8,N/A,,Overcast,350,2013-12-14 12:33:00
6:58 AM,24.8,24.6,99,30.18,9.0,NNW,18.4,28.8,N/A,,Overcast,340,2013-12-14 12:58:00
7:08 AM,24.8,24.8,100,30.13,10.0,North,19.6,26.5,N/A,,Overcast,350,2013-12-14 13:08:00
7:58 AM,24.8,24.3,98,30.20,10.0,NNW,24.2,26.5,N/A,,Overcast,340,2013-12-14 13:58:00
8:58 AM,25.3,23.2,91,30.23,10.0,North,20.7,24.2,N/A,,Overcast,350,2013-12-14 14:58:00
9:58 AM,25.2,21.2,85,30.25,10.0,North,17.3,27.6,N/A,,Overcast,350,2013-12-14 15:58:00
10:18 AM,24.8,21.2,86,30.22,10.0,NNW,15.0,-,N/A,,Overcast,340,2013-12-14 16:18:00
10:58 AM,26.6,19.4,74,30.27,10.0,North,18.4,-,N/A,,Scattered Clouds,350,2013-12-14 16:58:00
11:58 AM,30.6,18.9,62,30.25,10.0,North,17.3,21.9,N/A,,Clear,350,2013-12-14 17:58:00
12:58 PM,33.3,18.9,56,30.24,10.0,North,12.7,-,N/A,,Clear,350,2013-12-14 18:58:00
1:58 PM,35.8,18.9,50,30.22,10.0,NW,15.0,18.4,N/A,,Clear,320,2013-12-14 19:58:00
2:58 PM,37.2,18.9,48,30.23,10.0,NNW,12.7,-,N/A,,Clear,330,2013-12-14 20:58:00
3:58 PM,37.6,20.7,51,30.25,10.0,NW,11.5,-,N/A,,Clear,320,2013-12-14 21:58:00
4:58 PM,36.5,21.0,54,30.26,10.0,NNW,9.2,-,N/A,,Clear,340,2013-12-14 22:58:00
5:58 PM,32.5,21.4,64,30.27,10.0,North,6.9,-,N/A,,Clear,350,2013-12-14 23:58:00
6:58 PM,31.3,21.7,68,30.29,10.0,North,2.3,-,N/A,,Clear,10,2013-12-15 00:58:00
7:58 PM,29.8,21.4,71,30.29,10.0,Calm,Calm,-,N/A,,Clear,0,2013-12-15 01:58:00
8:58 PM,29.1,21.4,73,30.29,10.0,ENE,1.2,-,N/A,,Clear,60,2013-12-15 02:58:00
9:58 PM,28.2,21.6,76,30.29,10.0,Calm,Calm,-,N/A,,Clear,0,2013-12-15 03:58:00
10:58 PM,23.4,20.5,89,30.30,10.0,SSW,4.6,-,N/A,,Clear,210,2013-12-15 04:58:00
11:58 PM,23.2,21.6,94,30.27,10.0,South,2.3,-,N/A,,Clear,190,2013-12-15 05:58:00